Regional Weather Roundup
Issued by NWS Goodland, KS

Home | Current Version | Previous Version | Graphics & Text | Print | Product List | Glossary On
Versions: 1 2 3 4 5 6 7 8 9 10 11 12 13 14 15 16 17 18 19 20 21 22 23 24 25 26 27 28 29 30 31 32 33 34 35 36 37 38 39 40 41 42 43 44 45 46 47 48 49 50
000
ASUS43 KGLD 250308
RWRGLD

GOODLAND FORECAST AREA HOURLY WEATHER ROUNDUP
NATIONAL WEATHER SERVICE GOODLAND KS
900 PM MDT FRI MAR 24 2017

...OFFICIAL OBSERVATIONS...

CITY           SKY/WX    TMP DP  RH WIND       PRES   REMARKS
GOODLAND KS    CLOUDY    38  37  97 N16       30.07R
HILL CITY KS   CLOUDY    43  40  89 N17G26    30.04R
IMPERIAL NEB   CLOUDY    44  37  76 NW7       30.10S
MCCOOK NEB     LGT RAIN  41  41 100 NE9       30.06F
AKRON CO       CLEAR     37  34  89 SW3       30.12S
BURLINGTON CO  CLEAR     37  35  92 N14       30.10S
LIMON CO       CLEAR     33  32  96 W8        30.15R
$$

...UNOFFICIAL OBSERVATIONS...

CITY           SKY/WX    TMP DP  RH WIND       PRES   REMARKS
LENORA KS        N/A     41  32  70 N12G20      N/A
NORTON KS      CLOUDY    39  34  81 N20G26    30.05R
SHARON SPRINGS   N/A     40  38  91 NE22        N/A
TRENTON NEB      N/A     42  32  68 CALM        N/A
YUMA CO        FAIR      34  32  93 W6        30.13R
$$




USA.gov is the U.S. government's official web portal to all federal, state and local government web resources and services.